Stations météo

réclame
Mon MeteoGroup
Andernach, Allemagne (10520): Température de l'air & dewpoint: 18.01.2018 10:00:00 - 24.01.2018 10:00:00 (CET)Andernach, Allemagne (10520): Température de l'air 5cm & Température de l'air -5cm: 18.01.2018 10:00:00 - 24.01.2018 10:00:00 (CET)Andernach, Allemagne (10520): Température de l'air -20cm & Température de l'air -100cm: 18.01.2018 10:00:00 - 24.01.2018 10:00:00 (CET)Andernach, Allemagne (10520): Vitesse du vent & gusts: 18.01.2018 10:00:00 - 24.01.2018 10:00:00 (CET)Andernach, Allemagne (10520): Direction du vent: 18.01.2018 10:00:00 - 24.01.2018 10:00:00 (CET)Andernach, Allemagne (10520): reduced air pressure: 18.01.2018 10:00:00 - 24.01.2018 10:00:00 (CET)Andernach, Allemagne (10520): visibility: 18.01.2018 10:00:00 - 24.01.2018 10:00:00 (CET)Andernach, Allemagne (10520): Ensoleillement: 18.01.2018 10:00:00 - 24.01.2018 10:00:00 (CET)Andernach, Allemagne (10520): Quantités de précipitations: 18.01.2018 10:00:00 - 24.01.2018 10:00:00 (CET)
Date & Time tt [°C] td [°C] tt 5cm [°C] tt -5cm [°C] tt -20cm [°C] tt -100cm [°C] ff [km/h] ff [knt] fx [km/h] fx [knt] dd ppp [hPa] vv [km] sd [min] rr [mm]
24.01.2018 10:00:00 11,7 8,6 10,6 7,7 5,5 6,6 15 8 27 15 SSW 1020,5 70 0 0,0
24.01.2018 09:00:00 11,0 8,6 9,8 7,2 5,5 6,6 9 5 23 12 S 1020,7 70 0 0,0
24.01.2018 08:00:00 10,6 8,3 9,2 7,0 5,4 6,6 8 5 18 10 S 1021,1 70 0 0,0
24.01.2018 07:00:00 10,6 8,3 9,2 6,7 5,3 6,6 8 5 19 10 SSW 1021,4 70 0 0,0
24.01.2018 06:00:00 10,0 8,0 8,4 6,5 5,3 6,6 11 6 28 15 SSW 1021,3 70 0 0,0
24.01.2018 05:00:00 10,0 7,8 8,3 6,3 5,3 6,6 19 10 29 16 SSW 1021,2 70 0 0,0
24.01.2018 04:00:00 9,6 7,3 7,7 6,5 5,2 6,6 7 4 21 11 S 1021,7 70 0 0,0
24.01.2018 03:00:00 9,6 7,3 8,1 6,4 5,2 6,6 5 3 19 11 S 1022,1 70 0 0,0
24.01.2018 02:00:00 9,3 6,9 7,9 6,4 5,1 6,6 13 7 21 11 SSW 1022,1 70 0 0,0
24.01.2018 01:00:00 9,4 6,7 8,0 6,3 5,1 6,6 8 4 15 8 SSW 1022,5 70 0 0,0
24.01.2018 00:00:00 9,1 6,4 7,9 6,2 5,1 6,6 13 7 19 10 S 1022,2 69 0 0,0
23.01.2018 23:00:00 9,0 5,9 7,6 6,0 5,0 6,6 9 5 15 8 S 1022,6 70 0 0,0
23.01.2018 22:00:00 9,2 5,2 7,7 6,0 5,0 6,6 5 3 23 12 SW 1022,9 70 0 0,0
23.01.2018 21:00:00 8,8 4,7 7,3 5,9 5,0 6,6 16 9 30 16 SSW 1022,5 70 0 0,0
23.01.2018 20:00:00 8,6 4,3 7,1 5,9 5,0 6,6 15 8 22 12 SSW 1022,6 70 0 0,0
23.01.2018 19:00:00 8,6 4,2 7,0 6,0 4,9 6,6 15 8 28 15 SSW 1023,1 70 0 0,0
23.01.2018 18:00:00 8,9 4,0 7,4 6,1 4,9 6,7 11 6 21 11 S 1023,0 70 0 0,0
23.01.2018 17:00:00 8,7 4,2 7,2 6,5 4,7 6,7 10 5 28 15 S 1023,3 66 0 0,0
23.01.2018 16:00:00 9,0 4,6 7,9 6,6 4,6 6,7 10 6 19 10 SSW 1023,3 68 1 0,0
23.01.2018 15:00:00 8,5 4,9 7,5 6,5 4,5 6,7 8 5 17 9 SSW 1023,9 54 0 0,0
23.01.2018 14:00:00 8,3 4,9 7,0 6,2 4,3 6,7 10 5 18 10 S 1024,3 45 0 0,0
23.01.2018 13:00:00 8,0 4,6 7,4 6,0 4,2 6,7 9 5 20 11 S 1024,8 35 0 0,0
23.01.2018 12:00:00 7,6 4,6 7,4 5,1 4,2 6,7 9 5 18 10 SSW 1025,1 27 0 0,0
23.01.2018 11:00:00 6,9 3,8 5,9 4,7 4,1 6,7 11 6 19 10 SW 1025,3 27 0 0,0
23.01.2018 10:00:00 6,4 3,5 5,4 4,4 4,1 6,7 13 7 22 12 SW 1024,7 32 0 0,0
23.01.2018 09:00:00 6,3 3,1 5,1 4,2 4,1 6,7 16 8 26 14 SW 1024,1 32 0 0,0
23.01.2018 08:00:00 6,2 3,2 4,9 4,2 4,2 6,7 9 5 19 10 SW 1023,9 34 0 0,0
23.01.2018 07:00:00 5,7 3,2 4,0 4,2 4,2 6,7 4 2 19 11 E 1023,3 37 0 0,0
23.01.2018 06:00:00 6,2 3,0 4,5 4,3 4,2 6,7 9 5 17 9 WSW 1022,6 44 0 0,0
23.01.2018 05:00:00 6,4 3,4 4,9 4,4 4,2 6,7 10 5 19 10 WSW 1022,2 40 0 0,0
23.01.2018 04:00:00 6,3 3,5 5,0 4,4 4,2 6,7 13 7 21 11 WSW 1021,7 37 0 0,0
23.01.2018 03:00:00 6,2 3,5 4,5 4,4 4,2 6,7 6 3 15 8 WSW 1021,2 35 0 0,1
23.01.2018 02:00:00 6,2 3,4 4,8 4,5 4,2 6,7 9 5 23 13 WSW 1020,6 44 0 0,0
23.01.2018 01:00:00 6,9 3,4 4,9 4,6 4,2 6,7 9 5 17 9 WSW 1019,9 41 0 0,0
23.01.2018 00:00:00 7,1 3,7 5,0 4,5 4,2 6,7 7 4 15 8 W 1019,1 37 0 0,1
22.01.2018 23:00:00 7,4 3,0 5,4 4,6 4,2 6,7 5 3 10 5 W 1018,0 48 0 0,0
22.01.2018 22:00:00 7,9 2,4 5,3 4,7 4,2 6,7 5 3 14 7 W 1016,9 62 0 0,0
22.01.2018 21:00:00 7,8 2,9 5,1 4,9 4,2 6,7 5 3 15 8 W 1016,0 58 0 0,0
22.01.2018 20:00:00 8,1 3,5 5,1 5,0 4,1 6,7 7 4 21 11 NW 1014,9 55 0 0,0
22.01.2018 19:00:00 7,8 5,1 5,1 5,2 4,1 6,7 3 1 9 5 WSW 1013,7 40 0 0,0
22.01.2018 18:00:00 7,7 5,4 4,9 5,5 4,0 6,8 2 1 9 5 W 1012,5 31 0 0,0
22.01.2018 17:00:00 7,2 5,6 5,6 5,8 3,8 6,8 3 2 8 4 W 1010,9 25 0 0,0
22.01.2018 16:00:00 6,9 5,3 5,9 6,1 3,6 6,8 3 2 5 3 WNW 1009,8 22 0 0,0
22.01.2018 15:00:00 6,9 4,9 6,6 6,1 3,3 6,8 3 1 5 3 ENE 1008,8 30 2 0,0
22.01.2018 14:00:00 6,2 4,1 5,9 5,7 3,1 6,8 3 2 5 3 E 1008,6 28 0 0,0
22.01.2018 13:00:00 5,5 3,9 5,1 4,4 3,0 6,8 2 1 8 4 S 1008,6 26 0 0,0
22.01.2018 12:00:00 4,6 3,3 4,2 3,7 2,9 6,8 5 3 8 5 E 1008,9 27 0 0,0
22.01.2018 11:00:00 3,9 3,0 3,7 3,1 2,8 6,8 3 2 7 4 N 1008,6 17 0 0,0
22.01.2018 10:00:00 3,3 2,7 2,9 2,6 2,8 6,8 4 2 8 4 NE 1008,5 15 0 0,0
22.01.2018 09:00:00 2,8 2,6 2,3 2,3 2,8 6,8 5 3 11 6 ENE 1008,5 13 0 0,1
22.01.2018 08:00:00 2,3 1,9 1,7 2,2 2,8 6,8 6 3 10 6 E 1008,5 2,5 0 0,1
22.01.2018 07:00:00 2,0 1,8 1,4 2,1 2,8 6,8 6 4 13 7 ESE 1008,6 9 0 0,7
22.01.2018 06:00:00 2,0 1,6 1,3 2,1 2,8 6,8 8 5 14 8 ESE 1009,3 4,3 0 0,3
22.01.2018 05:00:00 1,9 1,5 1,2 2,0 2,8 6,8 9 5 17 9 ESE 1009,6 20 0 0,5
22.01.2018 04:00:00 1,8 1,2 1,2 2,0 2,9 6,8 10 5 15 8 ESE 1010,1 3,2 0 0,4
22.01.2018 03:00:00 1,7 0,9 1,0 1,9 2,9 6,8 11 6 14 8 ESE 1010,5 3,1 0 0,2
22.01.2018 02:00:00 1,6 0,7 0,8 1,9 3,0 6,8 8 5 17 9 ESE 1011,5 15 0 0,4
22.01.2018 01:00:00 1,3 0,3 0,4 2,0 3,0 6,8 11 6 17 9 SE 1012,3 8 0 0,6
22.01.2018 00:00:00 2,7 0,5 1,3 2,0 3,1 6,8 12 7 21 11 SSE 1013,6 14 0 0,1
21.01.2018 23:00:00 2,0 -0,4 0,5 1,9 3,2 6,9 5 3 9 5 ESE 1014,8 36 0 0,0
21.01.2018 22:00:00 1,9 -0,7 0,5 1,9 3,3 6,9 6 4 8 5 E 1015,3 37 0 0,0
21.01.2018 21:00:00 1,9 -0,6 -0,1 2,0 3,5 6,9 6 3 8 5 E 1016,7 37 0 0,0
21.01.2018 20:00:00 1,8 -0,3 -1,6 2,4 3,6 6,9 1 1 10 5 ENE 1017,4 38 0 0,0
21.01.2018 19:00:00 2,3 -0,2 -0,3 2,8 3,6 6,9 5 3 16 9 SSW 1017,7 33 0 0,0
21.01.2018 18:00:00 3,1 -0,1 1,4 3,6 3,6 6,9 10 5 16 8 SW 1018,0 47 0 0,0
21.01.2018 17:00:00 4,0 -0,3 2,3 4,4 3,5 6,9 9 5 15 8 SW 1018,1 70 0 0,0
21.01.2018 16:00:00 4,8 -0,7 3,2 5,3 3,4 6,9 7 4 25 13 WSW 1017,9 70 35 0,0
21.01.2018 15:00:00 5,3 -1,1 5,3 5,5 3,2 6,9 13 7 23 12 W 1017,7 70 28 0,0
21.01.2018 14:00:00 4,4 0,9 4,1 4,6 3,0 6,9 1 1 20 11 ESE 1017,3 70 0 0,1
21.01.2018 13:00:00 4,4 0,2 3,5 4,3 2,8 6,9 10 5 18 10 WNW 1017,3 70 0 0,0
21.01.2018 12:00:00 4,0 0,9 3,2 3,6 2,8 6,9 4 2 18 10 SW 1017,1 62 4 0,0
21.01.2018 11:00:00 4,0 1,1 3,5 2,7 2,7 6,9 3 2 16 8 SW 1016,4 48 3 0,0
21.01.2018 10:00:00 3,1 0,2 1,6 2,2 2,7 6,9 10 5 21 11 NW 1015,5 41 0 0,0
21.01.2018 09:00:00 3,0 0,8 1,3 2,1 2,7 6,9 5 3 21 11 NW 1014,5 23 0 0,0
21.01.2018 08:00:00 3,1 0,6 1,4 2,1 2,8 6,9 9 5 23 12 NNW 1013,3 26 0 0,0
21.01.2018 07:00:00 3,0 0,6 1,3 2,2 2,8 6,9 12 7 25 13 NW 1011,9 22 0 0,0
21.01.2018 06:00:00 2,8 1,4 1,6 2,2 2,8 6,9 9 5 31 17 NNW 1010,7 15 0 0,2
21.01.2018 05:00:00 2,5 1,2 1,4 2,2 2,8 6,9 14 7 29 16 NNW 1009,3 12 0 0,7
21.01.2018 04:00:00 2,7 1,2 1,6 2,2 2,8 6,9 13 7 30 16 NW 1008,0 9 0 0,3
21.01.2018 03:00:00 2,5 1,4 1,5 2,2 2,8 7,0 12 7 30 16 NNW 1006,9 8 0 0,1
21.01.2018 02:00:00 2,5 1,2 1,5 2,1 2,8 7,0 8 5 17 9 NW 1005,2 19 0 0,0
21.01.2018 01:00:00 2,3 1,3 1,4 2,1 2,8 7,0 4 2 18 10 NW 1004,1 9 0 0,0
21.01.2018 00:00:00 2,1 1,1 1,1 2,0 2,8 7,0 11 6 19 11 NW 1002,6 17 0 0,1
20.01.2018 23:00:00 1,8 1,0 1,0 2,1 2,8 7,0 5 3 8 4 W 1001,7 13 0 0,3
20.01.2018 22:00:00 1,7 1,2 1,0 2,1 2,8 7,0 3 1 6 3 WSW 1001,2 6 0 0,2
20.01.2018 21:00:00 1,5 1,1 0,9 2,2 2,9 7,0 4 2 7 4 S 1000,6 5 0 0,0
20.01.2018 20:00:00 1,7 1,0 1,0 2,2 2,9 7,0 1 0 6 3 ESE 1000,0 16 0 0,0
20.01.2018 19:00:00 1,7 1,0 0,9 2,2 2,9 7,0 5 3 9 5 NE 999,9 20 0 0,3
20.01.2018 18:00:00 1,5 0,8 0,7 2,2 2,9 7,0 4 2 10 5 E 999,7 21 0 0,9
20.01.2018 17:00:00 1,4 0,6 0,5 2,7 2,9 7,0 6 3 15 8 ESE 1000,5 13 0 1,9
20.01.2018 16:00:00 2,4 1,1 1,5 3,1 2,8 7,0 10 6 16 8 SE 1001,2 8 0 1,7
20.01.2018 15:00:00 3,2 1,8 2,4 3,3 2,7 7,0 6 3 16 8 SE 1001,9 20 0 1,2
20.01.2018 14:00:00 3,8 2,1 2,9 3,2 2,6 7,0 8 4 16 8 S 1003,4 20 0 0,7
20.01.2018 13:00:00 4,2 2,0 3,2 2,7 2,5 7,0 10 5 23 12 S 1004,9 18 0 0,2
20.01.2018 12:00:00 4,3 1,2 3,5 2,0 2,5 7,0 11 6 21 11 S 1006,4 42 0 0,0
20.01.2018 11:00:00 4,1 1,0 3,2 1,1 2,5 7,0 11 6 21 11 SSW 1007,8 68 4 0,0
20.01.2018 10:00:00 3,1 0,4 2,0 0,9 2,6 7,0 6 3 11 6 SSW 1008,4 46 0 0,0
20.01.2018 09:00:00 2,6 -0,1 -0,4 0,9 2,6 7,0 5 3 15 8 SSE 1009,2 53 0 0,0
20.01.2018 08:00:00 2,4 0,0 0,4 1,0 2,7 7,0 10 6 20 11 SSW 1009,6 56 0 0,0
20.01.2018 07:00:00 1,9 -0,3 0,0 1,0 2,8 7,0 6 3 16 9 WNW 1009,9 70 0 0,0
20.01.2018 06:00:00 2,0 -0,4 -0,4 1,1 2,8 7,0 5 3 10 5 SSW 1010,4 70 0 0,0
20.01.2018 05:00:00 2,8 -0,1 -0,5 1,2 2,9 7,0 8 5 24 13 SW 1010,6 70 0 0,0
20.01.2018 04:00:00 3,3 -0,3 1,3 1,3 3,0 7,0 10 6 20 11 WSW 1011,0 70 0 0,0
20.01.2018 03:00:00 2,5 0,0 0,4 1,3 3,1 7,0 6 4 22 12 NNW 1011,4 54 0 0,0
20.01.2018 02:00:00 2,8 -0,2 0,7 1,3 3,2 7,0 4 2 18 10 SW 1011,6 67 0 0,0
20.01.2018 01:00:00 1,3 -0,7 -2,1 1,4 3,4 7,1 4 2 17 9 NW 1012,0 37 0 0,0
20.01.2018 00:00:00 2,3 -0,6 0,7 1,6 3,5 7,1 15 8 23 12 SSW 1012,0 55 0 0,0
19.01.2018 23:00:00 2,8 -0,5 0,7 1,8 3,7 7,1 11 6 19 10 SW 1011,8 63 0 0,0
19.01.2018 22:00:00 1,9 -0,4 -0,7 1,9 3,8 7,1 5 3 21 11 NNW 1011,7 46 0 0,0
19.01.2018 21:00:00 2,6 -0,5 0,4 2,3 4,0 7,1 9 5 17 9 SW 1011,6 70 0 0,0
19.01.2018 20:00:00 2,9 -0,1 0,4 3,1 4,1 7,1 11 6 21 11 WSW 1011,1 62 0 0,0
19.01.2018 19:00:00 4,1 0,6 1,8 3,9 4,1 7,1 11 6 20 11 SW 1010,7 68 0 0,0
19.01.2018 18:00:00 5,2 -1,0 3,4 4,5 4,1 7,1 10 6 17 9 WSW 1010,8 70 0 0,0
19.01.2018 17:00:00 5,5 -1,1 3,3 5,2 4,0 7,1 7 4 23 12 W 1010,7 70 15 0,0
19.01.2018 16:00:00 6,5 -1,4 5,5 6,0 3,8 7,1 11 6 27 15 W 1010,6 69 44 0,0
19.01.2018 15:00:00 6,4 -1,4 6,7 6,3 3,5 7,1 16 9 31 17 W 1010,6 70 30 0,0
19.01.2018 14:00:00 6,3 -1,5 6,9 6,4 3,2 7,1 13 7 28 15 W 1010,7 70 50 0,0
19.01.2018 13:00:00 6,1 -1,1 6,9 5,6 2,9 7,1 17 9 34 18 WSW 1011,0 63 57 0,0
19.01.2018 12:00:00 6,0 -0,5 5,8 4,3 2,7 7,1 16 8 27 15 WSW 1011,0 67 42 0,0
19.01.2018 11:00:00 5,5 0,0 5,7 3,1 2,7 7,1 12 7 23 13 W 1010,6 46 51 0,0
19.01.2018 10:00:00 3,8 0,8 2,2 1,7 2,7 7,1 10 6 20 11 SW 1010,2 70 0 0,0
19.01.2018 09:00:00 3,1 0,7 1,5 1,4 2,7 7,1 10 5 18 10 WSW 1009,3 70 0 0,0
19.01.2018 08:00:00 3,5 0,2 1,3 1,2 2,8 7,1 10 5 17 9 WSW 1008,2 70 0 0,0
19.01.2018 07:00:00 3,3 0,1 0,5 1,3 2,9 7,1 9 5 18 10 WSW 1007,1 70 0 0,0
19.01.2018 06:00:00 2,9 1,2 0,6 1,4 2,9 7,1 6 3 29 16 W 1006,8 70 0 0,0
19.01.2018 05:00:00 1,2 0,9 -0,3 1,3 3,0 7,1 5 3 7 4 WNW 1006,2 27 0 0,0
19.01.2018 04:00:00 1,4 0,9 -0,9 1,5 3,1 7,1 2 1 6 3 W 1005,8 12 0 0,0
19.01.2018 03:00:00 1,7 0,9 0,2 1,6 3,2 7,1 3 2 8 5 SSW 1005,4 24 0 0,0
19.01.2018 02:00:00 2,1 1,1 0,6 1,9 3,2 7,2 3 2 21 11 SSW 1004,7 61 0 0,8
19.01.2018 01:00:00 3,0 2,1 2,1 1,9 3,3 7,2 11 6 17 9 N 1004,3 2,3 0 0,8
19.01.2018 00:00:00 2,6 1,7 1,2 1,6 3,4 7,2 2 1 6 3 NNW 1003,7 12 0 0,6
18.01.2018 23:00:00 2,3 0,8 1,2 1,6 3,6 7,2 4 2 8 4 ENE 1003,8 12 0 0,2
18.01.2018 22:00:00 1,9 -0,6 0,2 1,7 3,8 7,2 3 1 7 4 S 1004,0 55 0 0,0
18.01.2018 21:00:00 1,2 -0,7 -1,9 1,9 4,0 7,2 4 2 10 5 SSW 1003,9 36 0 0,0
18.01.2018 20:00:00 2,0 -0,5 -3,1 2,2 4,2 7,2 2 1 7 4 NNW 1003,7 36 0 0,0
18.01.2018 19:00:00 3,6 -0,1 -2,8 2,9 4,2 7,2 0 0 10 6 N 1003,3 70 0 0,0
18.01.2018 18:00:00 5,6 -0,4 -1,3 4,0 4,2 7,2 3 2 24 13 SSW 1002,9 70 0 0,0
18.01.2018 17:00:00 7,5 -0,9 4,5 5,0 4,2 7,2 16 8 45 24 NW 1002,0 70 47 0,0
18.01.2018 16:00:00 8,4 -0,6 7,1 5,8 4,0 7,2 17 9 51 27 NW 1001,5 64 45 0,0
18.01.2018 15:00:00 9,2 -0,8 7,8 6,2 3,8 7,2 26 14 63 34 WNW 1000,6 70 49 0,0
18.01.2018 14:00:00 9,4 -0,6 7,8 6,0 3,6 7,2 25 13 61 33 W 999,4 70 17 0,1
18.01.2018 13:00:00 11,2 -0,5 11,1 6,0 3,3 7,2 36 19 82 44 W 997,1 45 37 0,0
18.01.2018 12:00:00 11,9 1,3 10,0 5,9 3,1 7,2 38 20 81 44 W 995,8 61 51 0,0
18.01.2018 11:00:00 11,1 4,8 9,7 4,2 2,9 7,2 35 19 74 40 WSW 994,5 63 20 0,0
18.01.2018 10:00:00 8,0 4,6 5,7 3,1 2,9 7,2 15 8 29 15 SW 995,2 70 0 0,1

tt = Température de l'air
td = dewpoint
tt 5cm = Température de l'air 5cm
tt -5cm = Température de l'air -5cm
tt -20cm = Température de l'air -20cm
tt -100cm = Température de l'air -100cm
ff = Vitesse du vent
fx = gusts
dd = Direction du vent
ppp = reduced air pressure
vv = visibility
sd = Ensoleillement
rr = Quantités de précipitations

stations d'obs. à proximité